EW0642 Weather Reports


time (UTC)temp
F
wind
direction
speed
knots
gust
knots
rain 1hr
in
rain 24hr
in
rain mn
in
humidity
%
barometer
mb
20260508192025 72 276 5.2 13.9 0.00 0.00 0.00 30 1012.2
20260508191505 73 256 3.5 10.4 0.00 0.00 0.00 30 1012.2
20260508191025 73 241 3.5 10.4 0.00 0.00 0.00 30 1012.2
20260508190526 72 251 5.2 14.8 0.00 0.00 0.00 29 1012.3
20260508190004 72 199 6.1 14.8 0.00 0.00 0.00 29 1012.4
20260508185525 73 185 5.2 13.9 0.00 0.00 0.00 29 1012.3
20260508185025 73 202 4.3 9.6 0.00 0.00 0.00 31 1012.5
20260508184524 73 206 3.5 12.2 0.00 0.00 0.00 30 1012.4
20260508184025 72 226 4.3 12.2 0.00 0.00 0.00 30 1012.6
20260508183525 72 241 5.2 13.9 0.00 0.00 0.00 30 1012.5
20260508183004 73 226 4.3 13.9 0.00 0.00 0.00 29 1012.8
20260508182504 73 204 5.2 12.2 0.00 0.00 0.00 31 1012.6
20260508182004 73 222 3.5 12.2 0.00 0.00 0.00 31 1012.6
20260508181525 72 249 2.6 11.3 0.00 0.00 0.00 31 1012.7
20260508181025 72 227 4.3 11.3 0.00 0.00 0.00 31 1012.8
20260508180526 71 228 6.1 12.2 0.00 0.00 0.00 31 1013.1
20260508180004 72 257 4.3 12.2 0.00 0.00 0.00 30 1013.0
20260508175525 72 271 3.5 13.9 0.00 0.00 0.00 30 1013.0
20260508175025 71 222 4.3 13.9 0.00 0.00 0.00 32 1013.1
20260508174504 71 222 4.3 13.0 0.00 0.00 0.00 32 1013.2
20260508174025 71 215 5.2 11.3 0.00 0.00 0.00 33 1013.2
20260508173525 70 222 4.3 13.9 0.00 0.00 0.00 33 1013.2
20260508173004 70 257 4.3 13.9 0.00 0.00 0.00 32 1013.3
20260508172524 70 273 5.2 13.9 0.00 0.00 0.00 34 1013.3
20260508172004 69 264 6.1 19.1 0.00 0.00 0.00 32 1013.4
20260508171504 69 256 6.1 19.1 0.00 0.00 0.00 32 1013.6
20260508171004 69 265 6.1 17.4 0.00 0.00 0.00 34 1013.5
20260508170525 70 256 5.2 17.4 0.00 0.00 0.00 32 1013.7
20260508170004 71 258 2.6 8.7 0.00 0.00 0.00 32 1013.6
20260508165504 71 241 2.6 9.6 0.00 0.00 0.00 34 1013.6
20260508165024 70 220 3.5 13.9 0.00 0.00 0.00 34 1013.7
20260508164504 69 195 4.3 13.9 0.00 0.00 0.00 34 1013.7
20260508164025 69 212 3.5 11.3 0.00 0.00 0.00 34 1013.9
20260508163526 68 273 4.3 13.0 0.00 0.00 0.00 35 1013.8
20260508163025 68 262 4.3 13.9 0.00 0.00 0.00 35 1014.0
20260508162505 68 247 4.3 14.8 0.00 0.00 0.00 37 1014.0
20260508162004 68 271 5.2 14.8 0.00 0.00 0.00 35 1014.1
20260508161504 68 265 5.2 14.8 0.00 0.00 0.00 35 1014.2
20260508161006 68 243 4.3 14.8 0.00 0.00 0.00 35 1014.2
20260508160503 68 256 4.3 12.2 0.00 0.00 0.00 37 1014.2
20260508160025 67 241 4.3 11.3 0.00 0.00 0.00 38 1014.2
20260508155505 67 220 4.3 13.9 0.00 0.00 0.00 38 1014.4
20260508155025 66 237 5.2 13.9 0.00 0.00 0.00 37 1014.4
20260508154505 66 250 5.2 12.2 0.00 0.00 0.00 38 1014.5
20260508154025 66 246 5.2 12.2 0.00 0.00 0.00 37 1014.6
20260508153525 66 253 4.3 11.3 0.00 0.00 0.00 36 1014.8
20260508153024 66 256 5.2 13.9 0.00 0.00 0.00 38 1014.8
20260508152525 66 266 4.3 13.9 0.00 0.00 0.00 37 1014.9
20260508152004 65 285 4.3 12.2 0.00 0.00 0.00 38 1014.9
20260508151504 65 265 4.3 12.2 0.00 0.00 0.00 37 1014.9
20260508151025 65 238 5.2 13.0 0.00 0.00 0.00 36 1015.1
20260508150525 65 228 5.2 13.0 0.00 0.00 0.00 36 1015.1
20260508150005 65 218 4.3 13.9 0.00 0.00 0.00 38 1015.0
20260508145503 66 218 4.3 13.9 0.00 0.00 0.00 37 1015.0
20260508145025 65 232 3.5 11.3 0.00 0.00 0.00 41 1015.0
20260508144504 65 239 2.6 7.8 0.00 0.00 0.00 41 1015.0
20260508144004 64 263 3.5 9.6 0.00 0.00 0.00 41 1015.1
20260508143504 63 256 4.3 11.3 0.00 0.00 0.00 41 1015.2
20260508143004 64 227 4.3 11.3 0.00 0.00 0.00 41 1015.1
20260508142504 64 193 4.3 9.6 0.00 0.00 0.00 41 1015.2
20260508142025 64 196 2.6 7.8 0.00 0.00 0.00 40 1015.2
20260508141526 64 180 3.5 12.2 0.00 0.00 0.00 41 1015.2
20260508141004 63 190 3.5 12.2 0.00 0.00 0.00 40 1015.3
20260508140525 63 232 3.5 9.6 0.00 0.00 0.00 42 1015.3
20260508140025 63 232 3.5 9.6 0.00 0.00 0.00 41 1015.3
20260508135504 63 199 2.6 8.7 0.00 0.00 0.00 42 1015.3
20260508135004 63 210 2.6 7.8 0.00 0.00 0.00 44 1015.4
20260508134504 63 235 1.7 7.0 0.00 0.00 0.00 41 1015.4
20260508134025 62 186 0.9 3.5 0.00 0.00 0.00 46 1015.4
20260508133504 62 161 0.9 4.3 0.00 0.00 0.00 46 1015.4
20260508133025 61 138 1.7 4.3 0.00 0.00 0.00 47 1015.4
20260508132525 61 160 1.7 4.3 0.00 0.00 0.00 49 1015.5
20260508132004 61 208 1.7 4.3 0.00 0.00 0.00 49 1015.7
20260508131525 60 245 1.7 3.5 0.00 0.00 0.00 50 1015.7
20260508131004 60 228 1.7 3.5 0.00 0.00 0.00 51 1015.7
20260508130504 60 217 0.9 3.5 0.00 0.00 0.00 52 1015.7
20260508130004 59 191 0.9 3.5 0.00 0.00 0.00 56 1015.7
20260508125525 59 182 0.9 2.6 0.00 0.00 0.00 59 1015.7
20260508125025 58 222 0.9 2.6 0.00 0.00 0.00 61 1015.8
20260508124526 57 227 0.9 1.7 0.00 0.00 0.00 63 1015.8
20260508124004 56 235 0.9 3.5 0.00 0.00 0.00 65 1015.7
20260508123503 55 236 0.9 3.5 0.00 0.00 0.00 64 1015.6
20260508123004 55 138 0.0 1.7 0.00 0.00 0.00 71 1015.6
20260508122524 53 155 0.9 1.7 0.00 0.00 0.00 74 1015.7
20260508122025 51 186 0.9 1.7 0.00 0.00 0.00 79 1015.6
20260508121505 49 238 0.0 1.7 0.00 0.00 0.00 84 1015.7
20260508121027 48 261 0.0 1.7 0.00 0.00 0.00 88 1015.6
20260508120524 47 281 0.0 1.7 0.00 0.00 0.00 90 1015.6
20260508120025 46 0 0.0 0.0 0.00 0.00 0.00 91 1015.6
20260508115504 45 0 0.0 0.0 0.00 0.00 0.00 92 1015.5
20260508115024 44 0 0.0 0.0 0.00 0.00 0.00 92 1015.4
20260508114504 44 0 0.0 0.0 0.00 0.00 0.00 92 1015.3
20260508114003 43 0 0.0 0.0 0.00 0.00 0.00 92 1015.2
20260508113525 43 0 0.0 0.0 0.00 0.00 0.00 91 1015.1
20260508113026 43 0 0.0 0.0 0.00 0.00 0.00 91 1015.1
20260508112505 42 0 0.0 0.0 0.00 0.00 0.00 91 1015.1
20260508112025 42 0 0.0 0.0 0.00 0.00 0.00 91 1015.0
20260508111503 42 0 0.0 0.0 0.00 0.00 0.00 90 1015.0
20260508111025 41 0 0.0 0.0 0.00 0.00 0.00 90 1014.8
20260508110525 41 0 0.0 0.0 0.00 0.00 0.00 89 1014.8
20260508110025 41 0 0.0 0.0 0.00 0.00 0.00 89 1014.8
20260508105524 41 0 0.0 0.0 0.00 0.00 0.00 89 1014.8
20260508105004 41 0 0.0 0.0 0.00 0.00 0.00 89 1014.7
20260508104525 41 0 0.0 0.0 0.00 0.00 0.00 88 1014.7
20260508104024 41 0 0.0 0.0 0.00 0.00 0.00 88 1014.7
20260508103526 41 0 0.0 0.0 0.00 0.00 0.00 88 1014.7
20260508103024 42 0 0.0 0.0 0.00 0.00 0.00 88 1014.6
20260508102505 42 0 0.0 0.0 0.00 0.00 0.00 87 1014.5
20260508102004 42 0 0.0 0.0 0.00 0.00 0.00 87 1014.5
20260508101506 42 0 0.0 0.0 0.00 0.00 0.00 87 1014.4
20260508101025 42 0 0.0 0.0 0.00 0.00 0.00 86 1014.3
20260508100504 43 0 0.0 0.0 0.00 0.00 0.00 86 1014.3
20260508100025 43 0 0.0 0.0 0.00 0.00 0.00 86 1014.1
20260508095504 43 0 0.0 0.0 0.00 0.00 0.00 86 1014.2
20260508095025 43 0 0.0 0.0 0.00 0.00 0.00 86 1014.2
20260508094504 43 0 0.0 0.0 0.00 0.00 0.00 85 1014.2
20260508094004 44 0 0.0 0.0 0.00 0.00 0.00 84 1014.2
20260508093526 44 0 0.0 0.0 0.00 0.00 0.00 84 1014.1
20260508093004 44 0 0.0 0.0 0.00 0.00 0.00 84 1014.0
20260508092524 44 0 0.0 0.0 0.00 0.00 0.00 84 1014.0
20260508092025 45 0 0.0 0.0 0.00 0.00 0.00 83 1013.9
20260508091524 45 278 0.0 0.9 0.00 0.00 0.00 83 1014.0
20260508091004 45 278 0.0 0.9 0.00 0.00 0.00 83 1013.9
20260508090524 46 278 0.0 0.9 0.00 0.00 0.00 82 1013.9
20260508090025 46 278 0.0 0.9 0.00 0.00 0.00 82 1013.8
20260508085525 46 278 0.0 0.9 0.00 0.00 0.00 82 1013.8
20260508085024 46 278 0.0 0.9 0.00 0.00 0.00 81 1013.8
20260508084504 47 0 0.0 0.0 0.00 0.00 0.00 81 1013.7
20260508084024 47 0 0.0 0.0 0.00 0.00 0.00 80 1013.7
20260508083525 47 0 0.0 0.0 0.00 0.00 0.00 80 1013.6
20260508083003 48 0 0.0 0.0 0.00 0.00 0.00 80 1013.6
20260508082525 48 278 0.0 0.9 0.00 0.00 0.00 80 1013.6
20260508082024 48 291 0.0 1.7 0.00 0.00 0.00 80 1013.5
20260508081504 48 306 0.9 3.5 0.00 0.00 0.00 81 1013.4
20260508081025 48 308 0.9 3.5 0.00 0.00 0.00 81 1013.3
20260508080503 48 300 0.9 2.6 0.00 0.00 0.00 83 1013.3
20260508080025 48 317 0.9 4.3 0.00 0.00 0.00 83 1013.2
20260508075525 48 316 1.7 6.1 0.00 0.00 0.00 84 1013.1
20260508075005 48 304 1.7 6.1 0.00 0.00 0.00 85 1013.1
20260508074503 48 299 0.9 3.5 0.00 0.00 0.00 85 1013.0
20260508074026 48 286 0.9 3.5 0.00 0.00 0.00 86 1012.9
20260508073504 48 277 0.9 3.5 0.00 0.00 0.00 86 1012.9
20260508073004 48 302 0.9 3.5 0.00 0.00 0.00 86 1012.7
20260508072525 48 309 0.9 2.6 0.00 0.00 0.00 86 1012.6
20260508072005 49 309 0.0 2.6 0.00 0.00 0.00 86 1012.6
20260508071525 49 303 0.9 4.3 0.00 0.00 0.00 86 1012.5
20260508071024 49 281 0.9 4.3 0.00 0.00 0.00 86 1012.4
20260508070504 49 284 0.9 3.5 0.00 0.01 0.00 87 1012.3
20260508070004 49 298 0.9 3.5 0.00 0.01 0.00 87 1012.3
20260508065524 49 295 0.9 3.5 0.00 0.01 0.00 87 1012.2
20260508065026 49 294 0.9 4.3 0.00 0.01 0.00 87 1012.1
20260508064524 49 287 1.7 6.1 0.00 0.01 0.00 87 1012.1
20260508064025 49 275 1.7 6.1 0.00 0.01 0.00 87 1012.0
20260508063503 50 270 1.7 4.3 0.00 0.01 0.00 88 1011.9
20260508063004 50 255 1.7 6.1 0.00 0.01 0.00 88 1011.8
20260508062504 50 243 1.7 6.1 0.00 0.01 0.00 88 1011.8
20260508062025 50 249 1.7 5.2 0.00 0.01 0.00 88 1011.8
20260508061525 50 244 1.7 4.3 0.00 0.01 0.00 88 1011.9
20260508061003 50 247 1.7 6.1 0.00 0.01 0.00 88 1011.8
20260508060505 50 252 1.7 6.1 0.00 0.02 0.00 88 1011.8
20260508060005 50 253 0.9 2.6 0.00 0.02 0.00 88 1011.8
20260508055504 50 254 0.9 3.5 0.00 0.02 0.00 88 1011.7
20260508055004 50 236 1.7 3.5 0.00 0.02 0.00 88 1011.7
20260508054504 50 227 1.7 4.3 0.00 0.02 0.00 88 1011.7
20260508054003 50 224 1.7 4.3 0.00 0.02 0.00 87 1011.6
20260508053504 50 212 0.9 4.3 0.00 0.03 0.00 87 1011.6
20260508053004 50 230 0.9 3.5 0.00 0.03 0.00 87 1011.6
20260508052524 50 236 0.9 3.5 0.00 0.03 0.00 87 1011.6
20260508052004 50 231 0.9 3.5 0.00 0.03 0.00 86 1011.6
20260508051524 51 220 0.9 3.5 0.00 0.03 0.00 86 1011.6
20260508051025 51 213 0.9 4.3 0.00 0.03 0.00 86 1011.5
20260508050503 51 215 0.9 4.3 0.00 0.04 0.00 86 1011.5
20260508050004 51 210 1.7 5.2 0.00 0.04 0.00 86 1011.4
20260508045504 51 206 1.7 5.2 0.00 0.04 0.00 85 1011.4
20260508045003 51 211 1.7 5.2 0.00 0.04 0.00 85 1011.3
20260508044525 51 212 1.7 5.2 0.00 0.04 0.00 85 1011.3
20260508044004 51 202 1.7 5.2 0.00 0.04 0.00 85 1011.3
20260508043504 51 200 1.7 4.3 0.00 0.04 0.00 84 1011.3
20260508043004 51 213 0.9 4.3 0.00 0.04 0.00 84 1011.3
20260508042525 51 208 0.9 2.6 0.00 0.04 0.00 84 1011.2
20260508042024 52 199 0.9 3.5 0.00 0.04 0.00 84 1011.2
20260508041504 52 202 0.9 4.3 0.00 0.04 0.00 83 1011.2
20260508041025 52 207 0.9 4.3 0.00 0.04 0.00 83 1011.1
20260508040503 52 202 0.9 4.3 0.00 0.04 0.00 83 1011.1
20260508040025 52 184 0.9 5.2 0.00 0.04 0.00 83 1011.0
20260508035503 52 192 1.7 6.1 0.00 0.04 0.04 83 1011.0
20260508035026 52 205 1.7 6.1 0.00 0.04 0.04 83 1011.0
20260508034525 52 204 2.6 6.1 0.00 0.04 0.04 82 1011.0
20260508034004 52 199 1.7 5.2 0.00 0.04 0.04 82 1011.1
20260508033503 52 192 1.7 3.5 0.00 0.04 0.04 82 1011.0
20260508033004 52 195 1.7 3.5 0.00 0.04 0.04 81 1011.0
20260508032524 52 197 0.9 3.5 0.00 0.04 0.04 81 1011.0
20260508032024 52 187 1.7 4.3 0.00 0.04 0.04 80 1011.0
20260508031504 52 187 1.7 5.2 0.00 0.04 0.04 80 1011.0
20260508031003 52 189 1.7 5.2 0.00 0.04 0.04 80 1011.0
20260508030525 52 187 1.7 4.3 0.00 0.04 0.04 80 1011.0
20260508030024 52 184 1.7 5.2 0.00 0.04 0.04 79 1011.0
20260508025504 52 189 1.7 5.2 0.00 0.04 0.04 79 1010.9
20260508025003 52 194 0.9 3.5 0.00 0.04 0.04 79 1011.0
20260508024524 52 186 0.9 2.6 0.00 0.04 0.04 79 1011.0
20260508024025 52 190 0.9 2.6 0.00 0.04 0.04 78 1011.0
20260508023504 52 182 0.9 3.5 0.00 0.04 0.04 78 1010.9
20260508023026 52 178 1.7 3.5 0.00 0.04 0.04 77 1011.0
20260508022503 52 180 0.9 3.5 0.00 0.04 0.04 77 1011.0
20260508022004 53 184 0.9 4.3 0.00 0.04 0.04 77 1011.0
20260508021503 53 185 0.9 4.3 0.00 0.04 0.04 76 1011.0
20260508021004 53 186 0.9 4.3 0.00 0.04 0.04 76 1011.0
20260508020525 53 190 1.7 4.3 0.00 0.04 0.04 75 1011.0
20260508020025 53 191 0.9 4.3 0.00 0.04 0.04 75 1011.0
20260508015525 53 181 0.9 3.5 0.00 0.04 0.04 75 1010.7
20260508015025 53 188 1.7 5.2 0.00 0.04 0.04 74 1010.8
20260508014525 53 192 1.7 5.2 0.00 0.04 0.04 74 1010.8
20260508014003 54 199 0.9 4.3 0.00 0.04 0.04 73 1010.8
20260508013504 54 201 0.9 4.3 0.00 0.04 0.04 72 1010.7
20260508013004 54 193 0.9 5.2 0.00 0.04 0.04 71 1010.7
20260508012503 54 190 0.9 5.2 0.00 0.04 0.04 70 1010.7
20260508012025 54 189 0.9 4.3 0.00 0.04 0.04 70 1010.6
20260508011525 54 183 0.9 3.5 0.00 0.04 0.04 69 1010.4
20260508011027 54 179 0.9 4.3 0.00 0.04 0.04 69 1010.4
20260508010524 55 176 0.9 4.3 0.00 0.04 0.04 68 1010.2
20260508010025 55 176 0.9 4.3 0.00 0.04 0.04 67 1010.2
20260508005524 55 177 0.9 4.3 0.00 0.04 0.04 67 1010.1
20260508005024 55 180 0.9 4.3 0.00 0.04 0.04 66 1010.1
20260508004505 55 180 1.7 3.5 0.00 0.04 0.04 66 1009.9
20260508004005 56 183 1.7 7.0 0.00 0.04 0.04 65 1009.9
20260508003504 56 185 1.7 7.0 0.00 0.04 0.04 65 1009.9
20260508003024 56 186 2.6 6.1 0.00 0.04 0.04 65 1009.8
20260508002525 56 189 2.6 6.1 0.00 0.04 0.04 64 1009.8
20260508002024 56 189 1.7 6.1 0.00 0.04 0.04 64 1009.7
20260508001526 57 188 1.7 5.2 0.00 0.04 0.04 63 1009.7
20260508001003 57 184 1.7 5.2 0.00 0.04 0.04 62 1009.5
20260508000524 57 183 1.7 5.2 0.00 0.04 0.04 62 1009.6
20260508000025 57 182 0.9 5.2 0.00 0.04 0.04 62 1009.5
20260507235504 58 180 0.9 5.2 0.00 0.04 0.04 60 1009.3
20260507235005 58 174 1.7 5.2 0.00 0.04 0.04 60 1009.2
20260507234503 58 183 1.7 6.1 0.00 0.04 0.04 59 1009.3
20260507234025 58 193 1.7 6.1 0.00 0.04 0.04 58 1009.2
20260507233503 58 187 0.9 2.6 0.00 0.04 0.04 58 1009.2
20260507233025 59 183 1.7 5.2 0.00 0.04 0.04 58 1009.1
20260507232504 59 165 2.6 6.1 0.00 0.04 0.04 56 1009.1
20260507232026 59 156 1.7 7.8 0.00 0.04 0.04 56 1009.0
20260507231504 60 170 1.7 7.8 0.00 0.04 0.04 55 1009.0
20260507231025 60 160 2.6 7.0 0.00 0.04 0.04 55 1009.0
20260507230524 60 149 2.6 7.8 0.00 0.04 0.04 53 1009.0
20260507230005 61 159 2.6 7.8 0.00 0.04 0.04 53 1008.9
20260507225504 61 150 1.7 7.8 0.00 0.04 0.04 54 1008.8
20260507225024 61 138 1.7 7.8 0.00 0.04 0.04 54 1008.8
20260507224504 62 141 0.9 7.8 0.00 0.04 0.04 57 1008.7
20260507224024 62 143 1.7 7.8 0.00 0.04 0.04 53 1008.7
20260507223525 62 151 1.7 7.8 0.00 0.04 0.04 54 1008.7
20260507223024 62 159 1.7 7.8 0.00 0.04 0.04 52 1008.7
20260507222525 63 177 1.7 6.1 0.00 0.04 0.04 54 1008.6
20260507222004 63 185 1.7 6.1 0.00 0.04 0.04 52 1008.6
20260507221525 63 184 1.7 7.0 0.00 0.04 0.04 52 1008.6
20260507221024 63 146 1.7 7.0 0.00 0.04 0.04 52 1008.6
20260507220503 62 143 2.6 7.8 0.00 0.04 0.04 52 1008.7
20260507220005 63 139 2.6 7.8 0.00 0.04 0.04 51 1008.6
20260507215525 63 127 1.7 6.1 0.00 0.04 0.04 50 1008.6
20260507215005 64 144 1.7 6.1 0.00 0.04 0.04 51 1008.7
20260507214503 64 154 1.7 5.2 0.00 0.04 0.04 50 1008.7
20260507214026 64 162 1.7 4.3 0.00 0.04 0.04 50 1008.7
20260507213503 64 145 1.7 9.6 0.00 0.04 0.04 51 1008.7
20260507213003 64 114 1.7 9.6 0.00 0.04 0.04 51 1008.8
20260507212525 64 105 1.7 7.0 0.00 0.04 0.04 51 1008.7
20260507212003 64 138 1.7 6.1 0.00 0.04 0.04 51 1008.8
20260507211526 64 140 1.7 5.2 0.00 0.04 0.04 50 1008.8
20260507211004 64 129 1.7 5.2 0.00 0.04 0.04 52 1008.8
20260507210526 64 134 1.7 4.3 0.00 0.04 0.04 49 1008.8
20260507210024 64 137 1.7 6.1 0.00 0.04 0.04 48 1008.8
20260507205524 64 138 1.7 7.0 0.00 0.04 0.04 50 1008.8
20260507205004 64 183 1.7 7.0 0.00 0.04 0.04 48 1008.9
20260507204505 64 179 3.5 7.0 0.00 0.04 0.04 48 1009.0
20260507204025 64 159 3.5 7.0 0.00 0.04 0.04 48 1009.0
20260507203503 65 136 2.6 7.0 0.00 0.04 0.04 48 1008.7
20260507203004 65 133 1.7 5.2 0.00 0.04 0.04 50 1008.6
20260507202524 65 152 1.7 6.1 0.00 0.04 0.04 51 1008.7
20260507202003 65 160 1.7 6.1 0.00 0.04 0.04 49 1008.6
20260507201504 65 130 2.6 7.0 0.00 0.04 0.04 50 1008.6
20260507201003 64 99 3.5 9.6 0.00 0.04 0.04 49 1008.7
20260507200504 65 113 2.6 9.6 0.00 0.04 0.04 49 1008.6
20260507200003 66 180 1.7 7.0 0.00 0.04 0.04 48 1008.7
20260507195504 65 187 1.7 7.0 0.00 0.04 0.04 47 1008.7
20260507195024 65 130 1.7 6.1 0.00 0.04 0.04 49 1008.8
20260507194504 64 113 2.6 7.8 0.00 0.04 0.04 49 1008.9
20260507194003 64 119 2.6 7.8 0.00 0.04 0.04 48 1009.0
20260507193503 65 129 2.6 5.2 0.00 0.04 0.04 47 1009.2
20260507193024 65 144 1.7 7.0 0.00 0.04 0.04 47 1009.4
20260507192503 65 153 2.6 7.0 0.00 0.04 0.04 50 1009.5